Data No, UTC Date,UTC Time,Latitude,Longitude,Course(deg),Temp(degC),Sal(psu)
587,2020/4/27,9:48,42-36.93N,141-37.05E,210,5.424,31.0238
588,2020/4/27,9:49,42-36.65N,141-36.88E,197,5.412,31.0328
589,2020/4/27,9:50,42-36.30N,141-36.97E,166,5.261,31.0135
590,2020/4/27,9:51,42-36.16N,141-37.01E,165,5.21,30.966
591,2020/4/27,9:52,42-35.82N,141-37.15E,160,4.846,31.0142
592,2020/4/27,9:53,42-35.59N,141-37.32E,150,4.641,31.0628
593,2020/4/27,9:54,42-35.20N,141-37.71E,138,4.938,31.2803
594,2020/4/27,9:55,42-35.02N,141-37.93E,137,4.995,31.3792
595,2020/4/27,9:56,42-34.80N,141-38.21E,136,5.062,31.4296
596,2020/4/27,9:57,42-34.64N,141-38.42E,135,5.106,31.457
597,2020/4/27,9:58,42-34.44N,141-38.70E,133,5.118,31.5024
598,2020/4/27,9:59,42-34.05N,141-39.28E,129,5.081,31.5806
599,2020/4/27,10:00,42-33.96N,141-39.44E,128,5.14,31.5898
600,2020/4/27,10:01,42-33.76N,141-39.79E,127,5.247,31.6443
601,2020/4/27,10:02,42-33.42N,141-40.38E,127,5.288,31.617
602,2020/4/27,10:03,42-33.32N,141-40.56E,128,5.283,31.6045
603,2020/4/27,10:04,42-32.99N,141-41.12E,129,5.373,31.5509
604,2020/4/27,10:05,42-32.82N,141-41.39E,129,5.379,31.5324
605,2020/4/27,10:06,42-32.66N,141-41.66E,129,5.364,31.5005
606,2020/4/27,10:07,42-32.43N,141-42.04E,129,5.31,31.4792
607,2020/4/27,10:08,42-32.13N,141-42.54E,129,5.034,31.4906
608,2020/4/27,10:10,42-31.71N,141-43.23E,129,4.469,31.493
609,2020/4/27,10:11,42-31.37N,141-43.79E,129,4.178,31.5632
610,2020/4/27,10:12,42-31.16N,141-44.14E,129,4.339,31.5956
611,2020/4/27,10:13,42-30.97N,141-44.46E,129,4.47,31.5995
612,2020/4/27,10:14,42-30.77N,141-44.78E,129,4.681,31.5466
613,2020/4/27,10:15,42-30.48N,141-45.25E,129,4.898,31.5823
614,2020/4/27,10:16,42-30.30N,141-45.56E,129,5.008,31.583
615,2020/4/27,10:18,42-29.78N,141-46.41E,129,5.006,31.5756
616,2020/4/27,10:19,42-29.50N,141-46.86E,129,5.066,31.5776
617,2020/4/27,10:20,42-29.15N,141-47.45E,129,5.074,31.5017
618,2020/4/27,10:22,42-28.66N,141-48.23E,130,4.524,31.4066
619,2020/4/27,10:23,42-28.51N,141-48.47E,130,4.515,31.4643
620,2020/4/27,10:24,42-28.29N,141-48.82E,130,4.754,31.498
621,2020/4/27,10:25,42-28.03N,141-49.24E,130,5.382,31.3664
622,2020/4/27,10:26,42-27.80N,141-49.60E,130,5.624,31.1538
623,2020/4/27,10:27,42-27.37N,141-50.30E,129,5.399,30.8866
624,2020/4/27,10:28,42-27.29N,141-50.43E,129,5.372,30.8914
625,2020/4/27,10:29,42-26.96N,141-50.97E,129,5.168,30.9841
626,2020/4/27,10:30,42-26.77N,141-51.28E,129,4.985,31.0464
627,2020/4/27,10:31,42-26.49N,141-51.74E,129,4.742,31.1853
628,2020/4/27,10:32,42-26.31N,141-52.03E,129,4.706,31.3525
629,2020/4/27,10:33,42-25.95N,141-52.61E,129,4.571,31.5422
630,2020/4/27,10:34,42-25.75N,141-52.94E,130,4.847,31.5868
631,2020/4/27,10:35,42-25.56N,141-53.24E,129,4.803,31.5859
632,2020/4/27,10:36,42-25.36N,141-53.60E,126,4.677,31.4771
633,2020/4/27,10:37,42-25.14N,141-54.00E,126,4.823,31.3465
634,2020/4/27,10:38,42-24.84N,141-54.51E,129,5.017,31.3368
635,2020/4/27,10:39,42-24.51N,141-55.03E,131,4.985,31.157
636,2020/4/27,10:40,42-24.36N,141-55.25E,131,5.021,31.1803
637,2020/4/27,10:41,42-24.13N,141-55.59E,132,5.103,31.2776
638,2020/4/27,10:42,42-23.76N,141-56.14E,133,5.077,31.3343
639,2020/4/27,10:43,42-23.52N,141-56.48E,132,4.949,31.3315
640,2020/4/27,10:45,42-23.01N,141-57.29E,130,4.686,31.5113
641,2020/4/27,10:46,42-22.82N,141-57.58E,129,4.656,31.5532
642,2020/4/27,10:47,42-22.48N,141-58.12E,129,4.694,31.581
643,2020/4/27,10:48,42-22.35N,141-58.33E,129,4.759,31.5776
644,2020/4/27,10:49,42-22.06N,141-58.80E,130,4.76,31.5796
645,2020/4/27,10:50,42-21.74N,141-59.32E,130,4.834,31.5719
646,2020/4/27,10:51,42-21.55N,141-59.62E,130,4.868,31.5666
647,2020/4/27,10:52,42-21.18N,142-00.22E,130,4.871,31.563
648,2020/4/27,10:53,42-21.02N,142-00.48E,130,4.848,31.5652
649,2020/4/27,10:54,42-20.80N,142-00.83E,130,4.89,31.5725
650,2020/4/27,10:55,42-20.54N,142-01.25E,130,4.963,31.5708
651,2020/4/27,10:56,42-20.26N,142-01.70E,128,4.985,31.5618
652,2020/4/27,10:57,42-20.05N,142-02.09E,126,4.856,31.5338
653,2020/4/27,10:58,42-19.84N,142-02.52E,122,4.797,31.5198
654,2020/4/27,10:59,42-19.56N,142-03.19E,119,4.729,31.5066
655,2020/4/27,11:00,42-19.43N,142-03.50E,119,4.8,31.5012
656,2020/4/27,11:01,42-19.21N,142-04.05E,118,4.902,31.499
657,2020/4/27,11:02,42-18.96N,142-04.65E,118,4.923,31.4722
658,2020/4/27,11:03,42-18.90N,142-04.80E,118,4.852,31.4701
659,2020/4/27,11:04,42-18.71N,142-05.28E,118,4.548,31.4987
660,2020/4/27,11:05,42-18.43N,142-05.97E,118,4.524,31.5798
661,2020/4/27,11:06,42-18.26N,142-06.39E,118,4.595,31.6043
662,2020/4/27,11:07,42-18.12N,142-06.73E,118,4.605,31.6261
663,2020/4/27,11:08,42-17.91N,142-07.28E,118,4.864,31.6661
664,2020/4/27,11:09,42-17.67N,142-07.85E,118,4.994,31.6641
665,2020/4/27,11:10,42-17.57N,142-08.09E,118,5.016,31.6708
666,2020/4/27,11:11,42-17.35N,142-08.59E,121,5.081,31.7191
667,2020/4/27,11:12,42-17.14N,142-09.06E,121,5.106,31.7791
668,2020/4/27,11:13,42-16.85N,142-09.65E,123,4.476,31.8462
669,2020/4/27,11:14,42-16.72N,142-09.91E,124,4.152,31.872
670,2020/4/27,11:15,42-16.39N,142-10.56E,124,4.115,31.8182
671,2020/4/27,11:17,42-15.94N,142-11.49E,123,4.134,31.7589
672,2020/4/27,11:18,42-15.74N,142-11.88E,123,4.198,31.7595
673,2020/4/27,11:19,42-15.60N,142-12.15E,123,4.249,31.7671
674,2020/4/27,11:20,42-15.37N,142-12.61E,123,4.354,31.7804
675,2020/4/27,11:21,42-15.20N,142-12.97E,123,4.444,31.784
676,2020/4/27,11:22,42-14.89N,142-13.58E,123,4.379,31.7908
677,2020/4/27,11:23,42-14.66N,142-14.04E,123,4.223,31.7867
678,2020/4/27,11:24,42-14.55N,142-14.26E,123,4.172,31.788
679,2020/4/27,11:25,42-14.18N,142-15.03E,123,4.18,31.7444
680,2020/4/27,11:26,42-14.01N,142-15.37E,123,4.168,31.7257
681,2020/4/27,11:27,42-13.78N,142-15.83E,123,4.103,31.7161
682,2020/4/27,11:28,42-13.67N,142-16.06E,123,4.086,31.7155
683,2020/4/27,11:29,42-13.45N,142-16.48E,123,4.085,31.7149
684,2020/4/27,11:30,42-13.12N,142-17.16E,123,4.057,31.7093
685,2020/4/27,11:31,42-13.02N,142-17.36E,123,4.081,31.7093
686,2020/4/27,11:32,42-12.80N,142-17.81E,123,4.017,31.7028
687,2020/4/27,11:33,42-12.46N,142-18.50E,123,3.998,31.689
688,2020/4/27,11:34,42-12.34N,142-18.75E,123,4.025,31.6832
689,2020/4/27,11:35,42-11.95N,142-19.54E,123,4.044,31.6655
690,2020/4/27,11:36,42-11.81N,142-19.81E,123,4.015,31.657
691,2020/4/27,11:37,42-11.69N,142-20.06E,124,3.939,31.6547
692,2020/4/27,11:38,42-11.48N,142-20.48E,123,3.95,31.6609
693,2020/4/27,11:39,42-11.27N,142-20.89E,123,3.988,31.6684
694,2020/4/27,11:40,42-11.05N,142-21.33E,124,3.967,31.6635
695,2020/4/27,11:43,42-10.30N,142-22.90E,120,4.401,31.6358
696,2020/4/27,11:44,42-10.09N,142-23.39E,120,4.43,31.5865
697,2020/4/27,11:45,42-09.99N,142-23.61E,120,4.5,31.5768
698,2020/4/27,11:46,42-09.82N,142-24.01E,120,4.555,31.5675
699,2020/4/27,11:47,42-09.60N,142-24.51E,120,4.722,31.5311
700,2020/4/27,11:48,42-09.36N,142-25.06E,120,5.01,31.4789
701,2020/4/27,11:49,42-09.19N,142-25.47E,120,5.03,31.4077
702,2020/4/27,11:50,42-09.02N,142-25.85E,120,4.928,31.3311
703,2020/4/27,11:51,42-08.82N,142-26.32E,120,4.8,31.2898
704,2020/4/27,11:52,42-08.59N,142-26.84E,119,4.863,31.3107
705,2020/4/27,11:54,42-08.18N,142-27.81E,119,4.968,31.4195
706,2020/4/27,11:55,42-08.03N,142-28.15E,120,4.993,31.4225
707,2020/4/27,11:56,42-07.74N,142-28.81E,120,5.021,31.4282
708,2020/4/27,11:57,42-07.64N,142-29.05E,120,5.011,31.4294
709,2020/4/27,11:58,42-07.31N,142-29.81E,120,4.905,31.436
710,2020/4/27,11:59,42-07.23N,142-29.99E,120,4.877,31.4382
711,2020/4/27,12:00,42-06.97N,142-30.58E,120,4.798,31.4515
712,2020/4/27,12:01,42-06.85N,142-30.87E,120,4.802,31.4525
713,2020/4/27,12:03,42-06.42N,142-31.86E,120,4.851,31.444
714,2020/4/27,12:04,42-06.21N,142-32.33E,121,4.839,31.4198
715,2020/4/27,12:05,42-05.99N,142-32.81E,121,4.758,31.3981
716,2020/4/27,12:06,42-05.73N,142-33.40E,121,4.608,31.3975
717,2020/4/27,12:07,42-05.63N,142-33.64E,121,4.521,31.402
718,2020/4/27,12:09,42-05.11N,142-34.88E,116,4.546,31.4249
719,2020/4/27,12:10,42-05.03N,142-35.09E,116,4.521,31.4321
720,2020/4/27,12:11,42-04.88N,142-35.53E,115,4.618,31.4506
721,2020/4/27,12:12,42-04.60N,142-36.32E,115,4.803,31.458
722,2020/4/27,12:13,42-04.51N,142-36.60E,115,5.001,31.4398
723,2020/4/27,12:14,42-04.29N,142-37.18E,116,4.898,31.3718
724,2020/4/27,12:15,42-04.12N,142-37.63E,117,4.642,31.321
725,2020/4/27,12:16,42-03.90N,142-38.19E,118,4.587,31.315
726,2020/4/27,12:19,42-03.49N,142-39.25E,117,4.363,31.3548
727,2020/4/27,12:20,42-03.24N,142-39.88E,117,4.431,31.4158
728,2020/4/27,12:21,42-03.05N,142-40.38E,117,4.34,31.4296
729,2020/4/27,12:22,42-02.82N,142-40.96E,117,4.329,31.4791
730,2020/4/27,12:25,42-02.28N,142-42.36E,117,4.38,31.5221
731,2020/4/27,12:26,42-02.17N,142-42.66E,117,4.41,31.506
732,2020/4/27,12:28,42-01.79N,142-43.65E,117,4.246,31.4944
733,2020/4/27,12:31,42-01.27N,142-44.99E,117,4.284,31.5945
734,2020/4/27,12:32,42-01.00N,142-45.68E,117,4.396,31.562
735,2020/4/27,12:34,42-00.77N,142-46.28E,117,4.29,31.5046
736,2020/4/27,12:35,42-00.52N,142-46.95E,117,4.268,31.5133
737,2020/4/27,12:36,42-00.36N,142-47.37E,116,4.317,31.5393
738,2020/4/27,12:37,42-00.18N,142-47.83E,117,4.276,31.5524
739,2020/4/27,12:38,42-00.03N,142-48.20E,117,4.355,31.5757
740,2020/4/27,12:39,41-59.87N,142-48.63E,116,4.469,31.616
741,2020/4/27,12:40,41-59.61N,142-49.36E,116,4.649,31.7159
742,2020/4/27,12:42,41-59.34N,142-50.02E,116,4.852,31.9071
743,2020/4/27,12:43,41-59.05N,142-50.81E,116,4.823,32.1772
744,2020/4/27,12:44,41-58.96N,142-51.05E,116,4.778,32.221
745,2020/4/27,12:46,41-58.64N,142-51.89E,116,5.04,32.2599
746,2020/4/27,12:50,41-57.96N,142-53.69E,116,5.382,32.4328
747,2020/4/27,12:52,41-57.43N,142-55.12E,116,4.401,32.3305
748,2020/4/27,12:53,41-57.31N,142-55.45E,116,4.28,32.2786
749,2020/4/27,12:54,41-57.17N,142-55.82E,114,4.269,32.2141
750,2020/4/27,12:58,41-56.53N,142-57.65E,114,4.425,32.1041
751,2020/4/27,12:59,41-56.40N,142-58.04E,114,4.414,32.0962
752,2020/4/27,13:00,41-56.24N,142-58.53E,114,4.422,32.0875
753,2020/4/27,13:02,41-55.94N,142-59.40E,114,4.504,32.0702
754,2020/4/27,13:03,41-55.80N,142-59.85E,114,4.135,32.0568
755,2020/4/27,13:05,41-55.49N,143-00.74E,114,3.787,31.9209
756,2020/4/27,13:06,41-55.28N,143-01.36E,114,3.91,31.8449
757,2020/4/27,13:07,41-55.06N,143-02.00E,114,3.9,31.8056
758,2020/4/27,13:09,41-54.83N,143-02.64E,114,3.929,31.7909
759,2020/4/27,13:10,41-54.62N,143-03.26E,115,3.97,31.8093
760,2020/4/27,13:11,41-54.45N,143-03.73E,114,3.921,31.8172
761,2020/4/27,13:12,41-54.26N,143-04.27E,114,3.815,31.8182
762,2020/4/27,13:13,41-54.21N,143-04.45E,114,3.803,31.8158
763,2020/4/27,13:15,41-53.73N,143-05.82E,114,3.757,31.7946
764,2020/4/27,13:16,41-53.67N,143-05.99E,114,3.745,31.7954
765,2020/4/27,13:17,41-53.48N,143-06.56E,114,3.712,31.8017
766,2020/4/27,13:18,41-53.34N,143-06.94E,114,3.73,31.8098
767,2020/4/27,13:20,41-53.01N,143-07.93E,114,3.601,31.8313
768,2020/4/27,13:22,41-52.67N,143-08.94E,113,3.528,31.8857
769,2020/4/27,13:23,41-52.53N,143-09.35E,113,3.501,31.9009
770,2020/4/27,13:26,41-52.03N,143-10.84E,114,3.134,31.7913
771,2020/4/27,13:27,41-51.82N,143-11.44E,114,3.081,31.7331
772,2020/4/27,13:28,41-51.65N,143-11.96E,114,3.141,31.683
773,2020/4/27,13:30,41-51.35N,143-12.83E,114,3.334,31.622
774,2020/4/27,13:32,41-51.05N,143-14.06E,102,3.474,31.5883
775,2020/4/27,13:33,41-50.99N,143-14.59E,98,3.397,31.6028
776,2020/4/27,13:35,41-50.97N,143-15.43E,89,2.477,31.6316
777,2020/4/27,13:36,41-50.97N,143-15.76E,89,2.343,31.6752
778,2020/4/27,13:37,41-51.04N,143-16.33E,75,2.274,31.7834
779,2020/4/27,13:38,41-51.16N,143-16.75E,69,2.16,31.8026
780,2020/4/27,13:39,41-51.33N,143-17.36E,69,2.069,31.8222
781,2020/4/27,13:41,41-51.58N,143-18.20E,68,2.093,31.8446
782,2020/4/27,13:42,41-51.74N,143-18.76E,68,2.083,31.8541
783,2020/4/27,13:43,41-51.86N,143-19.17E,68,1.967,31.8535
784,2020/4/27,13:44,41-52.05N,143-19.75E,64,1.895,31.8838
785,2020/4/27,13:45,41-52.24N,143-20.19E,59,1.922,31.9197
786,2020/4/27,13:46,41-52.37N,143-20.47E,57,2.001,31.9345
787,2020/4/27,13:47,41-52.55N,143-20.80E,53,2.281,31.9304
788,2020/4/27,13:49,41-53.19N,143-21.78E,44,3.149,31.8096
789,2020/4/27,13:50,41-53.50N,143-22.15E,40,3.129,31.6793
790,2020/4/27,13:51,41-53.80N,143-22.45E,36,3.085,31.6132
791,2020/4/27,13:52,41-53.97N,143-22.61E,35,3.06,31.6047
792,2020/4/27,13:53,41-54.53N,143-23.14E,35,3.042,31.6129
793,2020/4/27,13:54,41-54.61N,143-23.22E,35,3.033,31.6136
794,2020/4/27,13:55,41-55.10N,143-23.69E,35,2.987,31.6355
795,2020/4/27,13:57,41-55.57N,143-24.14E,35,2.994,31.6552
796,2020/4/27,13:58,41-56.03N,143-24.59E,35,3.202,31.6575
797,2020/4/27,13:59,41-56.27N,143-24.82E,36,3.433,31.6583
798,2020/4/27,14:00,41-56.48N,143-25.03E,36,3.587,31.6412
799,2020/4/27,14:01,41-56.87N,143-25.42E,35,3.727,31.5709
800,2020/4/27,14:04,41-57.85N,143-26.36E,35,3.826,31.5133
801,2020/4/27,14:06,41-58.26N,143-26.75E,35,3.854,31.4805
802,2020/4/27,14:09,41-59.51N,143-27.86E,33,3.884,31.4593
803,2020/4/27,14:12,42-00.31N,143-28.57E,33,3.983,31.5078
804,2020/4/27,14:14,42-00.90N,143-29.08E,32,4.113,31.5669
805,2020/4/27,14:15,42-01.27N,143-29.39E,32,4.127,31.6139
806,2020/4/27,14:16,42-01.55N,143-29.62E,31,4.124,31.6918
807,2020/4/27,14:17,42-01.77N,143-29.80E,31,4.107,31.7353
808,2020/4/27,14:19,42-02.49N,143-30.38E,30,4.225,31.7464
809,2020/4/27,14:20,42-02.97N,143-30.77E,31,4.142,31.8073
810,2020/4/27,14:21,42-03.13N,143-30.90E,30,4.141,31.8293
811,2020/4/27,14:22,42-03.47N,143-31.17E,30,4.138,31.9332
812,2020/4/27,14:23,42-03.83N,143-31.46E,30,4.14,31.9257
813,2020/4/27,14:24,42-04.25N,143-31.80E,30,4.128,31.9205
814,2020/4/27,14:25,42-04.43N,143-31.94E,30,4.116,31.9192
815,2020/4/27,14:26,42-04.86N,143-32.27E,30,4.079,31.9258
816,2020/4/27,14:27,42-05.27N,143-32.59E,30,4.051,31.9497
817,2020/4/27,14:28,42-05.44N,143-32.73E,30,4.09,31.9344
818,2020/4/27,14:29,42-05.74N,143-32.97E,30,4.041,31.9317
819,2020/4/27,14:30,42-06.27N,143-33.40E,30,4.024,31.8822
820,2020/4/27,14:31,42-06.44N,143-33.54E,30,3.875,31.8685
821,2020/4/27,14:32,42-06.72N,143-33.76E,31,3.715,31.783
822,2020/4/27,14:33,42-07.15N,143-34.11E,30,3.45,31.6854
823,2020/4/27,14:34,42-07.59N,143-34.48E,31,3.038,31.5984
824,2020/4/27,14:35,42-07.71N,143-34.58E,31,2.949,31.5782
825,2020/4/27,14:36,42-08.04N,143-34.86E,31,3.037,31.5567
826,2020/4/27,14:37,42-08.64N,143-35.34E,31,3.273,31.5546
827,2020/4/27,14:38,42-08.79N,143-35.46E,30,3.283,31.5434
828,2020/4/27,14:39,42-09.04N,143-35.66E,31,3.336,31.5337
829,2020/4/27,14:40,42-09.44N,143-36.00E,31,3.059,31.5045
830,2020/4/27,14:41,42-09.68N,143-36.21E,31,2.858,31.4912
831,2020/4/27,14:42,42-10.01N,143-36.48E,31,2.882,31.4967
832,2020/4/27,14:43,42-10.39N,143-36.79E,30,2.931,31.5154
833,2020/4/27,14:44,42-10.71N,143-37.05E,31,3.03,31.5217
834,2020/4/27,14:45,42-10.95N,143-37.27E,32,3.055,31.5176
835,2020/4/27,14:46,42-11.25N,143-37.53E,32,2.922,31.5146
836,2020/4/27,14:47,42-11.61N,143-37.83E,31,2.917,31.5017
837,2020/4/27,14:49,42-12.43N,143-38.51E,31,3.105,31.429
838,2020/4/27,14:53,42-13.58N,143-39.47E,32,3.209,31.4201
839,2020/4/27,14:54,42-13.99N,143-39.82E,32,3.251,31.4234
840,2020/4/27,14:56,42-14.47N,143-40.23E,32,3.281,31.4297
841,2020/4/27,14:57,42-14.90N,143-40.59E,31,3.292,31.5189
842,2020/4/27,14:58,42-15.28N,143-40.92E,32,3.341,31.5791
843,2020/4/27,14:59,42-15.59N,143-41.18E,32,3.287,31.6314
844,2020/4/27,15:01,42-16.16N,143-41.67E,32,3.462,31.5631
845,2020/4/27,15:02,42-16.48N,143-41.95E,32,3.535,31.6108
846,2020/4/27,15:04,42-17.26N,143-42.62E,32,3.175,31.7578
847,2020/4/27,15:05,42-17.52N,143-42.84E,32,3.147,31.7894
848,2020/4/27,15:06,42-17.68N,143-42.98E,32,3.148,31.8276
849,2020/4/27,15:07,42-17.99N,143-43.25E,32,3.093,31.8699
850,2020/4/27,15:08,42-18.30N,143-43.51E,32,3.337,31.9058
851,2020/4/27,15:09,42-18.71N,143-43.86E,32,3.469,31.96
852,2020/4/27,15:12,42-19.60N,143-44.62E,32,3.646,32.03
853,2020/4/27,15:13,42-19.94N,143-44.92E,33,3.44,32.0541
854,2020/4/27,15:14,42-20.49N,143-45.40E,33,3.446,32.1573
855,2020/4/27,15:15,42-20.66N,143-45.56E,33,3.518,32.1762
856,2020/4/27,15:16,42-20.92N,143-45.78E,33,3.647,32.1939
857,2020/4/27,15:17,42-21.26N,143-46.08E,33,3.658,32.2099
858,2020/4/27,15:24,42-23.63N,143-48.03E,31,3.543,32.1032
859,2020/4/27,15:26,42-24.18N,143-48.47E,29,3.782,32.0624
860,2020/4/27,15:27,42-24.66N,143-48.84E,29,3.955,32.039
861,2020/4/27,15:28,42-25.02N,143-49.10E,28,3.723,32.0754
862,2020/4/27,15:30,42-25.41N,143-49.38E,29,3.244,32.0726
863,2020/4/27,15:32,42-26.06N,143-49.87E,28,3.29,31.9674
864,2020/4/27,15:33,42-26.58N,143-50.26E,29,3.361,31.9105
865,2020/4/27,15:34,42-26.96N,143-50.55E,29,3.259,31.907
866,2020/4/27,15:36,42-27.44N,143-50.91E,28,3.121,31.9087
867,2020/4/27,15:40,42-28.72N,143-51.86E,28,2.772,31.9951
868,2020/4/27,15:43,42-29.73N,143-52.60E,28,2.799,31.9784
869,2020/4/27,15:44,42-30.31N,143-53.04E,28,2.921,31.9456
870,2020/4/27,15:45,42-30.53N,143-53.19E,28,2.953,31.9293
871,2020/4/27,15:46,42-31.01N,143-53.55E,28,2.897,31.8947
872,2020/4/27,15:48,42-31.42N,143-53.86E,28,2.975,31.8831
873,2020/4/27,15:50,42-32.07N,143-54.33E,28,2.944,31.8113
874,2020/4/27,15:51,42-32.49N,143-54.65E,28,2.982,31.7825
875,2020/4/27,15:52,42-32.78N,143-54.87E,28,3.046,31.7695
876,2020/4/27,15:53,42-33.14N,143-55.13E,28,3.124,31.7525
877,2020/4/27,15:55,42-33.79N,143-55.61E,28,3.095,31.7313
878,2020/4/27,15:58,42-35.05N,143-56.56E,28,3.257,31.7233
879,2020/4/27,16:00,42-35.46N,143-56.87E,28,3.206,31.7187
880,2020/4/27,16:01,42-36.01N,143-57.28E,28,3.134,31.7091
881,2020/4/27,16:02,42-36.20N,143-57.43E,29,3.105,31.7084
882,2020/4/27,16:03,42-36.69N,143-57.79E,28,3.135,31.7043
883,2020/4/27,16:05,42-37.25N,143-58.20E,29,3.25,31.7031
884,2020/4/27,16:06,42-37.78N,143-58.60E,28,3.184,31.6923
885,2020/4/27,16:07,42-37.87N,143-58.66E,28,3.207,31.6908
886,2020/4/27,16:08,42-38.30N,143-58.98E,28,3.194,31.6926
887,2020/4/27,16:09,42-38.60N,143-59.20E,28,3.188,31.6939
888,2020/4/27,16:10,42-39.01N,143-59.51E,28,3.103,31.6992
889,2020/4/27,16:12,42-39.68N,144-00.01E,28,3.265,31.697
890,2020/4/27,16:13,42-39.86N,144-00.15E,28,3.309,31.69
891,2020/4/27,16:14,42-40.31N,144-00.49E,28,3.401,31.6832
892,2020/4/27,16:15,42-40.78N,144-00.84E,28,3.429,31.6774
893,2020/4/27,16:16,42-40.87N,144-00.90E,28,3.427,31.6773
894,2020/4/27,16:17,42-41.43N,144-01.31E,28,3.378,31.6709
895,2020/4/27,16:18,42-41.54N,144-01.39E,28,3.345,31.6708
896,2020/4/27,16:19,42-42.09N,144-01.80E,28,2.953,31.6711
897,2020/4/27,16:20,42-42.34N,144-01.99E,29,2.827,31.6729
898,2020/4/27,16:23,42-43.50N,144-02.87E,28,2.731,31.7012
899,2020/4/27,16:24,42-43.72N,144-03.03E,29,2.706,31.7022
900,2020/4/27,16:25,42-43.92N,144-03.19E,29,2.684,31.7041
901,2020/4/27,16:26,42-44.48N,144-03.61E,29,2.645,31.7138
902,2020/4/27,16:27,42-44.82N,144-03.87E,29,2.65,31.7217
903,2020/4/27,16:28,42-45.14N,144-04.12E,30,2.679,31.7268
904,2020/4/27,16:30,42-45.71N,144-04.56E,29,2.614,31.7443
905,2020/4/27,16:32,42-46.44N,144-05.12E,29,2.56,31.7705
906,2020/4/27,16:33,42-46.70N,144-05.32E,28,2.5,31.7813
907,2020/4/27,16:34,42-46.97N,144-05.51E,28,2.394,31.7991
908,2020/4/27,16:36,42-47.82N,144-06.16E,28,1.88,31.8644
909,2020/4/27,16:38,42-48.29N,144-06.51E,28,1.94,31.8515
910,2020/4/27,16:40,42-49.07N,144-07.11E,29,2.224,31.7969
911,2020/4/27,16:41,42-49.32N,144-07.30E,30,2.182,31.7723
912,2020/4/27,16:42,42-49.62N,144-07.54E,30,2.221,31.7422
913,2020/4/27,16:43,42-49.94N,144-07.80E,30,2.406,31.7342
914,2020/4/27,16:46,42-50.91N,144-08.61E,30,2.707,31.6391
915,2020/4/27,16:48,42-51.73N,144-09.27E,30,1.983,31.6255
916,2020/4/27,16:50,42-52.38N,144-09.79E,30,2.225,31.6628
917,2020/4/27,16:51,42-52.51N,144-09.89E,30,2.345,31.6637
918,2020/4/27,16:52,42-52.94N,144-10.23E,30,3.197,31.6172
919,2020/4/27,16:54,42-53.51N,144-10.69E,30,3.502,31.4572
920,2020/4/27,16:55,42-53.88N,144-10.99E,30,3.59,31.4186
921,2020/4/27,16:56,42-54.15N,144-11.21E,30,3.582,31.371
922,2020/4/27,16:57,42-54.55N,144-11.55E,32,3.463,31.3034
923,2020/4/27,16:58,42-54.92N,144-11.87E,33,3.383,31.226
924,2020/4/27,16:59,42-55.17N,144-12.11E,34,3.401,31.1497
925,2020/4/27,17:00,42-55.44N,144-12.36E,34,3.573,31.0775
926,2020/4/27,17:01,42-55.97N,144-12.88E,35,3.783,30.8463
927,2020/4/27,17:02,42-56.11N,144-13.01E,35,3.718,30.7899
928,2020/4/27,17:04,42-56.86N,144-13.82E,38,3.266,30.6677
929,2020/4/27,17:06,42-57.39N,144-14.41E,38,3.323,30.5084
930,2020/4/27,17:08,42-57.91N,144-15.00E,40,3.582,30.3462
931,2020/4/27,17:09,42-58.27N,144-15.51E,52,3.954,30.0592
932,2020/4/27,17:10,42-58.31N,144-15.59E,53,3.672,30.0641
933,2020/4/27,17:12,42-58.73N,144-16.50E,66,3.217,30.6672
934,2020/4/27,17:13,42-58.86N,144-16.92E,67,2.331,30.3338
935,2020/4/27,17:15,42-59.06N,144-17.53E,65,2.662,31.1095
936,2020/4/27,17:16,42-59.14N,144-17.78E,65,3.805,31.1718
1093,2020/4/27,21:42,42-59.09N,144-17.80E,257,3.863,30.0117
1094,2020/4/27,21:44,42-59.02N,144-17.38E,257,3.063,29.625
1095,2020/4/27,21:46,42-58.93N,144-16.78E,258,2.925,30.4498
1096,2020/4/27,21:47,42-58.80N,144-16.42E,233,3.733,30.7275
1097,2020/4/27,21:48,42-58.69N,144-16.29E,217,3.912,30.7889
1098,2020/4/27,21:49,42-58.31N,144-16.00E,207,3.358,29.8451
1099,2020/4/27,21:52,42-57.70N,144-15.58E,206,3.42,30.4834
1100,2020/4/27,21:54,42-57.13N,144-15.18E,207,3.419,30.8161
1101,2020/4/27,21:57,42-56.53N,144-14.74E,208,3.418,31.024
1102,2020/4/27,21:58,42-56.12N,144-14.44E,208,3.62,30.9333
1103,2020/4/27,21:59,42-56.01N,144-14.36E,210,3.786,30.8901
1104,2020/4/27,22:00,42-55.77N,144-14.15E,211,3.885,30.8656
1105,2020/4/27,22:02,42-55.24N,144-13.69E,211,3.785,30.7613
1106,2020/4/27,22:04,42-54.87N,144-13.38E,212,3.767,30.6559
1107,2020/4/27,22:06,42-54.41N,144-12.99E,212,3.644,30.6935
1108,2020/4/27,22:07,42-54.18N,144-12.79E,211,3.574,30.7548
1109,2020/4/27,22:10,42-53.45N,144-12.16E,212,3.518,31.103
1110,2020/4/27,22:11,42-53.28N,144-12.02E,212,3.46,31.1823
1111,2020/4/27,22:18,42-51.47N,144-10.32E,218,3.451,31.4238
1112,2020/4/27,22:22,42-50.69N,144-09.55E,211,3.221,31.4365
1113,2020/4/27,22:23,42-50.52N,144-09.41E,210,3.307,31.4598
1114,2020/4/27,22:25,42-50.05N,144-09.06E,207,3.307,31.448
1115,2020/4/27,22:27,42-49.56N,144-08.73E,205,3.257,31.4849
1116,2020/4/27,22:32,42-48.33N,144-07.97E,201,3.066,31.5481
1117,2020/4/27,22:33,42-48.06N,144-07.83E,200,3.27,31.5608
1118,2020/4/27,22:35,42-47.51N,144-07.56E,199,3.402,31.4857
1119,2020/4/27,22:39,42-46.53N,144-07.08E,200,3.31,31.427
1120,2020/4/27,22:41,42-45.99N,144-06.81E,200,3.2,31.4738
1121,2020/4/27,22:42,42-45.63N,144-06.62E,202,3.151,31.507
1122,2020/4/27,22:43,42-45.35N,144-06.44E,204,2.786,31.5502
1123,2020/4/27,22:46,42-44.80N,144-06.11E,203,2.512,31.6964
1124,2020/4/27,22:48,42-44.29N,144-05.80E,204,2.277,31.7559
1125,2020/4/27,22:51,42-43.52N,144-05.33E,204,2.567,31.7642
1126,2020/4/27,22:52,42-43.04N,144-05.05E,203,2.596,31.7417
1127,2020/4/27,22:57,42-41.78N,144-04.30E,203,2.515,31.687
1128,2020/4/27,23:00,42-41.23N,144-03.99E,201,2.522,31.6921
1129,2020/4/27,23:01,42-40.77N,144-03.75E,201,2.769,31.6865
1130,2020/4/27,23:05,42-39.84N,144-03.22E,203,3.009,31.6528
1131,2020/4/27,23:08,42-39.14N,144-02.79E,204,3.228,31.6202
1132,2020/4/27,23:11,42-38.34N,144-02.30E,204,3.289,31.6152
1133,2020/4/27,23:14,42-37.56N,144-01.84E,203,3.265,31.6115
1134,2020/4/27,23:16,42-37.08N,144-01.55E,204,3.242,31.5996
1135,2020/4/27,23:19,42-36.38N,144-01.12E,204,3.209,31.5799
1136,2020/4/27,23:24,42-35.07N,144-00.30E,204,3.257,31.5289
1137,2020/4/27,23:25,42-34.76N,144-00.11E,204,3.251,31.5147
1138,2020/4/27,23:33,42-33.00N,143-58.69E,211,3.224,31.5411
1139,2020/4/27,23:35,42-32.48N,143-58.26E,212,3.262,31.5619
1140,2020/4/27,23:37,42-31.94N,143-57.79E,212,3.301,31.5708
1141,2020/4/27,23:38,42-31.73N,143-57.62E,211,3.339,31.5745
1142,2020/4/27,23:41,42-31.04N,143-57.04E,211,3.488,31.5818
1143,2020/4/27,23:42,42-30.78N,143-56.82E,211,3.523,31.5763
1144,2020/4/27,23:43,42-30.66N,143-56.72E,211,3.531,31.5764